Time,TemperatureF,DewpointF,PressureIn,WindDirection,WindDirectionDegrees,WindSpeedMPH,WindSpeedGustMPH,Humidity,HourlyPrecipIn,Conditions,Clouds,dailyrainin,SoftwareType,DateUTC
2013-08-02 00:00:00,88.5,70.8,29.99,NW,305,1.0,3.0,56,0.00,CLR,SKC,0.00,WeatherDisplay:10.37,2013-08-02 04:00:00,
2013-08-02 00:15:00,91.2,71.1,29.98,WNW,298,1.0,3.0,52,0.00,CLR,SKC,0.00,WeatherDisplay:10.37,2013-08-02 04:15:00,
2013-08-02 00:30:00,91.2,71.1,29.98,East,90,2.0,4.0,52,0.00,CLR,SKC,0.00,WeatherDisplay:10.37,2013-08-02 04:30:00,
2013-08-02 00:45:00,91.2,70.6,29.98,ENE,67,1.0,4.0,51,0.00,CLR,SKC,0.00,WeatherDisplay:10.37,2013-08-02 04:45:00,
2013-08-02 01:00:00,90.3,70.3,29.98,East,81,3.0,6.0,52,0.00,CLR,SKC,0.00,WeatherDisplay:10.37,2013-08-02 05:00:00,
2013-08-02 01:15:00,89.4,70.0,29.97,ESE,104,0.0,6.0,53,0.00,CLR,SKC,0.00,WeatherDisplay:10.37,2013-08-02 05:15:00,
2013-08-02 01:30:00,91.6,70.9,29.97,West,281,2.0,4.0,51,0.00,CLR,SKC,0.00,WeatherDisplay:10.37,2013-08-02 05:30:00,
2013-08-02 01:45:00,91.4,70.7,29.96,North,351,1.0,4.0,51,0.00,CLR,SKC,0.00,WeatherDisplay:10.37,2013-08-02 05:45:00,
2013-08-02 02:00:00,91.9,70.6,29.95,SE,130,2.0,4.0,50,0.00,CLR,SKC,0.00,WeatherDisplay:10.37,2013-08-02 06:00:00,
2013-08-02 02:15:00,90.9,70.2,29.95,SE,129,0.0,4.0,51,0.00,CLR,SKC,0.00,WeatherDisplay:10.37,2013-08-02 06:15:00,
2013-08-02 02:30:00,92.7,72.5,29.95,West,270,2.0,4.0,52,0.00,CLR,SKC,0.00,WeatherDisplay:10.37,2013-08-02 06:30:00,
2013-08-02 02:45:00,92.5,69.9,29.95,West,270,1.0,4.0,48,0.00,CLR,SKC,0.00,WeatherDisplay:10.37,2013-08-02 06:45:00,
2013-08-02 03:00:00,92.8,70.9,29.95,East,90,3.0,5.0,49,0.00,CLR,SKC,0.00,WeatherDisplay:10.37,2013-08-02 07:00:00,
2013-08-02 03:15:00,92.5,70.5,29.95,SSE,162,2.0,5.0,49,0.00,CLR,SKC,0.00,WeatherDisplay:10.37,2013-08-02 07:15:00,
2013-08-02 03:30:00,90.5,69.9,29.95,SSW,202,1.0,4.0,51,0.00,CLR,SKC,0.00,WeatherDisplay:10.37,2013-08-02 07:30:00,
2013-08-02 03:45:00,89.1,69.7,29.96,WSW,252,3.0,4.0,53,0.00,CLR,SKC,0.00,WeatherDisplay:10.37,2013-08-02 07:45:00,
2013-08-02 04:00:00,88.2,70.0,29.95,WSW,251,1.0,4.0,55,0.00,CLR,SKC,0.00,WeatherDisplay:10.37,2013-08-02 08:00:00,
2013-08-02 04:15:00,89.4,70.6,29.95,WSW,256,2.0,3.0,54,0.00,CLR,SKC,0.00,WeatherDisplay:10.37,2013-08-02 08:15:00,
2013-08-02 04:30:00,89.1,69.7,29.95,West,270,3.0,4.0,53,0.00,CLR,SKC,0.00,WeatherDisplay:10.37,2013-08-02 08:30:00,
2013-08-02 04:45:00,87.6,70.0,29.95,West,270,2.0,4.0,56,0.00,CLR,SKC,0.00,WeatherDisplay:10.37,2013-08-02 08:45:00,
2013-08-02 05:00:00,87.6,71.0,29.94,WSW,243,2.0,4.0,58,0.00,CLR,SKC,0.00,WeatherDisplay:10.37,2013-08-02 09:00:00,
2013-08-02 05:15:00,89.6,70.8,29.94,SSW,211,1.0,4.0,54,0.00,CLR,SKC,0.00,WeatherDisplay:10.37,2013-08-02 09:15:00,
2013-08-02 05:30:00,89.8,70.9,29.95,SW,235,1.0,2.0,54,0.00,CLR,SKC,0.00,WeatherDisplay:10.37,2013-08-02 09:30:00,
2013-08-02 05:45:00,87.6,71.5,29.96,WSW,257,1.0,2.0,59,0.00,CLR,SKC,0.00,WeatherDisplay:10.37,2013-08-02 09:45:00,
2013-08-02 06:00:00,86.9,73.3,29.96,SSE,156,0.0,2.0,64,0.00,CLR,SKC,0.00,WeatherDisplay:10.37,2013-08-02 10:00:00,
2013-08-02 06:15:00,86.9,74.2,29.96,SE,135,0.0,1.0,66,0.00,CLR,SKC,0.00,WeatherDisplay:10.37,2013-08-02 10:15:00,
2013-08-02 06:30:00,83.3,73.7,29.97,ESE,108,0.0,1.0,73,0.00,CLR,SKC,0.00,WeatherDisplay:10.37,2013-08-02 10:30:00,
2013-08-02 06:45:00,81.9,73.5,29.97,West,270,0.0,0.0,76,0.00,CLR,SKC,0.00,WeatherDisplay:10.37,2013-08-02 10:45:00,
2013-08-02 07:00:00,79.9,72.8,29.98,East,90,0.0,0.0,79,0.00,CLR,SKC,0.00,WeatherDisplay:10.37,2013-08-02 11:00:00,
2013-08-02 07:15:00,79.2,73.2,29.98,East,90,0.0,1.0,82,0.00,CLR,SKC,0.00,WeatherDisplay:10.37,2013-08-02 11:15:00,
2013-08-02 07:30:00,78.1,73.5,29.99,East,90,1.0,2.0,86,0.00,CLR,SKC,0.00,WeatherDisplay:10.37,2013-08-02 11:30:00,
2013-08-02 07:45:00,77.7,74.2,29.98,SSE,164,0.0,2.0,89,0.00,CLR,SKC,0.00,WeatherDisplay:10.37,2013-08-02 11:45:00,
2013-08-02 08:00:00,77.5,73.7,29.98,South,169,0.0,0.0,88,0.00,CLR,SKC,0.00,WeatherDisplay:10.37,2013-08-02 12:00:00,
2013-08-02 08:15:00,77.0,73.5,29.99,ESE,108,0.0,0.0,89,0.00,CLR,SKC,0.00,WeatherDisplay:10.37,2013-08-02 12:15:00,
2013-08-02 08:30:00,77.2,74.3,29.99,South,183,0.0,0.0,91,0.00,CLR,SKC,0.00,WeatherDisplay:10.37,2013-08-02 12:30:00,
2013-08-02 08:45:00,77.0,73.8,29.99,South,169,0.0,0.0,90,0.00,CLR,SKC,0.00,WeatherDisplay:10.37,2013-08-02 12:45:00,
2013-08-02 09:00:00,76.6,73.8,30.00,SE,135,0.0,0.0,91,0.00,CLR,SKC,0.00,WeatherDisplay:10.37,2013-08-02 13:00:00,
2013-08-02 09:15:00,75.9,73.4,30.00,South,191,0.0,0.0,92,0.00,CLR,SKC,0.00,WeatherDisplay:10.37,2013-08-02 13:15:00,
2013-08-02 09:30:00,76.3,74.1,30.00,WSW,252,0.0,0.0,93,0.00,CLR,SKC,0.00,WeatherDisplay:10.37,2013-08-02 13:30:00,
2013-08-02 09:45:00,75.7,73.6,30.00,West,270,1.0,2.0,93,0.00,CLR,SKC,0.00,WeatherDisplay:10.37,2013-08-02 13:45:00,
2013-08-02 10:00:00,76.5,74.6,30.00,East,90,0.0,2.0,94,0.00,CLR,SKC,0.00,WeatherDisplay:10.37,2013-08-02 14:00:00,
2013-08-02 10:15:00,75.9,74.1,30.00,East,90,1.0,2.0,94,0.00,CLR,SKC,0.00,WeatherDisplay:10.37,2013-08-02 14:15:00,
2013-08-02 10:30:00,75.7,73.9,30.01,East,90,2.0,4.0,94,0.00,CLR,SKC,0.00,WeatherDisplay:10.37,2013-08-02 14:30:00,
2013-08-02 10:45:00,75.4,73.5,30.00,East,90,1.0,4.0,94,0.00,CLR,SKC,0.00,WeatherDisplay:10.37,2013-08-02 14:45:00,
2013-08-02 11:00:00,75.4,73.2,30.00,East,90,2.0,4.0,93,0.00,CLR,SKC,0.00,WeatherDisplay:10.37,2013-08-02 15:00:00,
2013-08-02 11:15:00,75.2,72.4,30.01,East,90,1.0,4.0,91,0.00,CLR,SKC,0.00,WeatherDisplay:10.37,2013-08-02 15:15:00,
2013-08-02 11:30:00,75.0,72.5,30.00,East,90,1.0,3.0,92,0.00,CLR,SKC,0.00,WeatherDisplay:10.37,2013-08-02 15:30:00,
2013-08-02 11:45:00,74.7,71.9,30.00,East,90,3.0,4.0,91,0.00,CLR,SKC,0.00,WeatherDisplay:10.37,2013-08-02 15:45:00,
2013-08-02 12:00:00,74.3,71.8,30.01,East,90,3.0,5.0,92,0.00,CLR,SKC,0.00,WeatherDisplay:10.37,2013-08-02 16:00:00,
2013-08-02 12:15:00,74.3,71.8,30.00,East,90,2.0,5.0,92,0.00,CLR,SKC,0.00,WeatherDisplay:10.37,2013-08-02 16:15:00,
2013-08-02 12:30:00,74.1,71.6,29.99,East,90,0.0,4.0,92,0.00,CLR,SKC,0.00,WeatherDisplay:10.37,2013-08-02 16:30:00,
2013-08-02 12:45:00,74.1,71.6,30.00,East,90,3.0,5.0,92,0.00,CLR,SKC,0.00,WeatherDisplay:10.37,2013-08-02 16:45:00,
2013-08-02 13:00:00,74.1,72.0,30.00,East,90,2.0,5.0,93,0.00,CLR,SKC,0.00,WeatherDisplay:10.37,2013-08-02 17:00:00,
2013-08-02 13:15:00,74.1,72.0,29.99,East,90,1.0,4.0,93,0.00,CLR,SKC,0.00,WeatherDisplay:10.37,2013-08-02 17:15:00,
2013-08-02 13:30:00,74.1,72.3,29.98,East,90,0.0,2.0,94,0.00,CLR,SKC,0.00,WeatherDisplay:10.37,2013-08-02 17:30:00,
2013-08-02 13:45:00,73.8,71.9,29.98,ESE,117,0.0,1.0,94,0.00,CLR,SKC,0.00,WeatherDisplay:10.37,2013-08-02 17:45:00,
2013-08-02 14:00:00,73.4,71.6,29.98,ESE,108,0.0,0.0,94,0.00,CLR,SKC,0.00,WeatherDisplay:10.37,2013-08-02 18:00:00,
2013-08-02 14:15:00,73.4,71.6,29.97,East,90,0.0,1.0,94,0.00,CLR,SKC,0.00,WeatherDisplay:10.37,2013-08-02 18:15:00,
2013-08-02 14:30:00,73.2,71.1,29.97,ESE,117,0.0,1.0,93,0.00,CLR,SKC,0.00,WeatherDisplay:10.37,2013-08-02 18:30:00,
2013-08-02 14:45:00,73.6,72.1,29.98,ESE,108,0.0,0.0,95,0.00,CLR,SKC,0.00,WeatherDisplay:10.37,2013-08-02 18:45:00,
2013-08-02 15:00:00,73.4,71.9,29.97,East,90,0.0,0.0,95,0.00,CLR,SKC,0.00,WeatherDisplay:10.37,2013-08-02 19:00:00,
2013-08-02 15:15:00,73.0,70.9,29.98,East,90,0.0,1.0,93,0.00,CLR,SKC,0.00,WeatherDisplay:10.37,2013-08-02 19:15:00,
2013-08-02 15:30:00,73.0,71.2,29.97,South,183,0.0,1.0,94,0.00,CLR,SKC,0.00,WeatherDisplay:10.37,2013-08-02 19:30:00,
2013-08-02 15:45:00,73.2,71.4,29.97,South,169,0.0,0.0,94,0.00,CLR,SKC,0.00,WeatherDisplay:10.37,2013-08-02 19:45:00,
2013-08-02 16:00:00,73.0,71.2,29.99,East,101,2.0,3.0,94,0.00,CLR,SKC,0.00,WeatherDisplay:10.37,2013-08-02 20:00:00,
2013-08-02 16:15:00,73.4,72.2,29.99,East,90,2.0,3.0,96,0.00,CLR,SKC,0.00,WeatherDisplay:10.37,2013-08-02 20:15:00,
2013-08-02 16:30:00,73.8,72.9,29.99,ESE,113,1.0,3.0,97,0.00,CLR,SKC,0.00,WeatherDisplay:10.37,2013-08-02 20:30:00,
2013-08-02 16:45:00,73.9,73.0,29.99,NW,315,0.0,2.0,97,0.00,CLR,SKC,0.00,WeatherDisplay:10.37,2013-08-02 20:45:00,
2013-08-02 17:00:00,73.9,73.0,30.00,North,349,2.0,3.0,97,0.00,CLR,SKC,0.00,WeatherDisplay:10.37,2013-08-02 21:00:00,
2013-08-02 17:15:00,74.3,73.4,30.00,NNE,27,2.0,4.0,97,0.00,CLR,SKC,0.00,WeatherDisplay:10.37,2013-08-02 21:15:00,
2013-08-02 17:30:00,74.8,73.9,30.00,ENE,72,2.0,4.0,97,0.00,CLR,SKC,0.00,WeatherDisplay:10.37,2013-08-02 21:30:00,
2013-08-02 17:45:00,75.4,74.2,30.00,ENE,71,0.0,3.0,96,0.00,CLR,SKC,0.00,WeatherDisplay:10.37,2013-08-02 21:45:00,
2013-08-02 18:00:00,76.1,74.9,30.00,East,82,3.0,4.0,96,0.00,CLR,SKC,0.00,WeatherDisplay:10.37,2013-08-02 22:00:00,
2013-08-02 18:15:00,76.8,75.3,30.00,ENE,61,3.0,5.0,95,0.00,CLR,SKC,0.00,WeatherDisplay:10.37,2013-08-02 22:15:00,
2013-08-02 18:30:00,76.8,75.0,30.00,ENE,72,3.0,6.0,94,0.00,CLR,SKC,0.00,WeatherDisplay:10.37,2013-08-02 22:30:00,
2013-08-02 18:45:00,76.8,75.0,30.00,East,90,3.0,6.0,94,0.00,CLR,SKC,0.00,WeatherDisplay:10.37,2013-08-02 22:45:00,
2013-08-02 19:00:00,76.8,75.0,30.00,East,90,3.0,6.0,94,0.00,CLR,SKC,0.00,WeatherDisplay:10.37,2013-08-02 23:00:00,
2013-08-02 19:15:00,77.0,74.8,30.00,East,90,3.0,6.0,93,0.00,CLR,SKC,0.00,WeatherDisplay:10.37,2013-08-02 23:15:00,
2013-08-02 19:30:00,77.4,75.2,30.00,ENE,77,1.0,5.0,93,0.00,CLR,SKC,0.00,WeatherDisplay:10.37,2013-08-02 23:30:00,
2013-08-02 19:45:00,77.9,75.1,30.00,NNE,22,1.0,2.0,91,0.00,CLR,SKC,0.00,WeatherDisplay:10.37,2013-08-02 23:45:00,
2013-08-02 20:00:00,78.4,75.3,30.00,NNW,328,1.0,2.0,90,0.00,CLR,SKC,0.00,WeatherDisplay:10.37,2013-08-03 00:00:00,
2013-08-02 20:15:00,78.8,74.9,30.01,NNE,27,3.0,6.0,88,0.00,CLR,SKC,0.00,WeatherDisplay:10.37,2013-08-03 00:15:00,
2013-08-02 20:30:00,79.3,75.5,30.01,ENE,61,0.0,6.0,88,0.00,CLR,SKC,0.00,WeatherDisplay:10.37,2013-08-03 00:30:00,
2013-08-02 20:45:00,80.6,75.3,30.00,NNE,26,1.0,3.0,84,0.00,CLR,SKC,0.00,WeatherDisplay:10.37,2013-08-03 00:45:00,
2013-08-02 21:00:00,81.5,75.5,30.00,ENE,75,3.0,6.0,82,0.00,CLR,SKC,0.00,WeatherDisplay:10.37,2013-08-03 01:00:00,
2013-08-02 21:15:00,81.7,75.6,30.00,East,90,1.0,6.0,82,0.00,CLR,SKC,0.00,WeatherDisplay:10.37,2013-08-03 01:15:00,
2013-08-02 21:30:00,82.4,75.6,30.00,NNE,13,5.0,9.0,80,0.00,CLR,SKC,0.00,WeatherDisplay:10.37,2013-08-03 01:30:00,
2013-08-02 21:45:00,82.4,75.6,29.99,NNE,28,1.0,9.0,80,0.00,CLR,SKC,0.00,WeatherDisplay:10.37,2013-08-03 01:45:00,
2013-08-02 22:00:00,82.9,75.4,30.00,NNE,18,3.0,6.0,78,0.00,CLR,SKC,0.00,WeatherDisplay:10.37,2013-08-03 02:00:00,
2013-08-02 22:15:00,83.3,76.5,29.99,NNE,19,1.0,6.0,80,0.00,CLR,SKC,0.00,WeatherDisplay:10.37,2013-08-03 02:15:00,
2013-08-02 22:30:00,83.5,76.3,29.99,ENE,78,1.0,4.0,79,0.00,CLR,SKC,0.00,WeatherDisplay:10.37,2013-08-03 02:30:00,
2013-08-02 22:45:00,84.0,76.4,29.99,NE,56,2.0,4.0,78,0.00,CLR,SKC,0.00,WeatherDisplay:10.37,2013-08-03 02:45:00,
2013-08-02 23:00:00,86.9,77.2,29.98,NE,45,2.0,4.0,73,0.00,CLR,SKC,0.00,WeatherDisplay:10.37,2013-08-03 03:00:00,
2013-08-02 23:15:00,86.9,76.8,29.98,NNE,31,2.0,6.0,72,0.00,CLR,SKC,0.00,WeatherDisplay:10.37,2013-08-03 03:15:00,
2013-08-02 23:30:00,86.2,76.1,29.97,East,80,8.0,9.0,72,0.00,CLR,SKC,0.00,WeatherDisplay:10.37,2013-08-03 03:30:00,
2013-08-02 23:45:00,84.7,76.3,29.98,East,80,1.0,9.0,76,0.00,CLR,SKC,0.00,WeatherDisplay:10.37,2013-08-03 03:45:00,